Regional Weather Roundup
Issued by NWS State College, PA

Home | Current Version | Previous Version | Text Only | Print | Product List | Glossary On
Versions: 1 2 3 4 5 6 7 8 9 10 11 12 13 14 15 16 17 18 19 20 21 22 23 24 25 26 27 28 29 30 31 32 33 34 35 36 37 38 39 40 41 42 43 44 45 46 47 48 49 50
000
ASUS41 KCTP 242310
RWRCTP

REGIONAL WEATHER ROUNDUP
NATIONAL WEATHER SERVICE STATE COLLEGE PA
700 PM EDT MON APR 24 2017

Note: "fair" indicates few or no clouds below 12,000 feet with no
significant weather and/or obstructions to visibility.

* = STATION THAT DOES NOT REPORT PRECIPITATION /E.G. RAIN...SNOW...ETC/
    THUNDER OR FOG.

PAZ002>004-007>009-013>016-020>023-029>032-250000-
WESTERN PENNSYLVANIA

CITY           SKY/WX    TMP DP  RH WIND       PRES   REMARKS
ERIE           SUNNY     56  44  64 NE10      29.98F
MEADVILLE      SUNNY     66  33  29 VRB7      29.97S
FRANKLIN*      CLOUDY    63  36  36 SE12      30.00S
NEW CASTLE     CLOUDY    61  42  49 SE12      29.99F
BEAVER COUNTY  LGT RAIN  54  46  76 SE6       29.99S
BUTLER*        CLOUDY    57  43  58 SE10      30.00F
PITTSBURGH INT LGT RAIN  56  46  69 E9        29.99S
PITTSBURGH     LGT RAIN  53  44  71 E9        29.99F
INDIANA*       CLOUDY    57  41  54 SE6       30.04S
LATROBE        CLOUDY    54  46  76 E12       30.01F
WASHINGTON CO* CLOUDY    52  46  82 NE8       30.00F
$$

PAZ004>006-010>012-017>019-024>028-033>037-041-042-045-046-049>053-250000-
CENTRAL PENNSYLVANIA

CITY           SKY/WX    TMP DP  RH WIND       PRES   REMARKS
BRADFORD       SUNNY     63  24  22 SE10G20   30.02S
DUBOIS         CLOUDY    59  35  40 SE9       30.01F
CLEARFIELD     CLOUDY    60  36  40 SE10G17   30.05S
JOHNSTOWN      LGT RAIN  50  40  68 E10G24    30.01F
ALTOONA        LGT RAIN  55  43  63 E12G21    30.05S
STATE COLLEGE  LGT RAIN  57  39  51 E7        30.05F
WILLIAMSPORT   CLOUDY    63  39  41 SE3       30.05F
SELINSGROVE    LGT RAIN  60  41  49 SE5       30.07S
FT INDIANTOWN  LGT RAIN  54  49  82 E9        30.08F
CAPITAL CITY   LGT RAIN  56  44  64 NE8       30.07S
HARRISBURG     LGT RAIN  55  46  71 NE6       30.07S
YORK           CLOUDY    52  47  83 NE6       30.05F
$$

PAZ038>040-043-044-047-048-054-055-060>062-067>071-250000-
EASTERN PENNSYLVANIA

CITY           SKY/WX    TMP DP  RH WIND       PRES   REMARKS
SCRANTON       CLOUDY    64  33  31 SE7       30.08S
MOUNT POCONO   CLOUDY    56  33  42 E10       30.10S
ALLENTOWN      LGT RAIN  56  42  59 E7        30.10S
QUAKERTOWN*    CLOUDY    55  39  54 E7        30.11S
READING        CLOUDY    56  43  61 E7        30.07F
LANCASTER      CLOUDY    55  48  77 E3        30.07S
COATESVILLE    CLOUDY    55  39  54 NE7G13    30.08S
POTTSTOWN      CLOUDY    55  36  48 E6        30.10F
BLUE BELL      CLOUDY    54  39  58 E7        30.10F
DOYLESTOWN     CLOUDY    55  39  54 CALM      30.09F
WILLOW GROVE   NOT AVBL
NORTH PHILA    CLOUDY    57  43  59 E8        30.11S
PHILADELPHIA   CLOUDY    57  39  51 NE14G24   30.08F
$$




USA.gov is the U.S. government's official web portal to all federal, state and local government web resources and services.